Date,TemperatureHighF,TemperatureAvgF,TemperatureLowF,DewpointHighF,DewpointAvgF,DewpointLowF,HumidityHigh,HumidityAvg,HumidityLow,PressureMaxIn,PressureMinIn,WindSpeedMaxMPH,WindSpeedAvgMPH,GustSpeedMaxMPH,PrecipitationSumIn
2013-1-1,30.2,20.3,13.5,13.3,2.9,-2.4,61,47,26,30.38,30.23,6,2,6,0.01
2013-1-2,26.8,19.2,9.9,11.6,6.8,-0.8,68,58,48,30.40,30.30,7,2,7,0.00
2013-1-3,29.3,25.8,12.7,21.1,15.8,-0.8,72,66,49,30.39,30.29,11,3,11,0.00
2013-1-4,35.4,26.8,22.5,19.9,13.3,8.6,70,57,39,30.42,30.27,18,5,18,0.00
2013-1-5,34.7,25.8,15.4,26.7,16.5,7.8,81,68,51,30.51,30.25,10,2,10,0.00
2013-1-6,34.9,32.9,32.0,27.2,26.6,26.2,80,77,72,30.25,30.14,8,3,8,0.00
2013-1-7,38.7,31.1,26.2,23.0,19.2,16.8,69,61,47,30.61,30.39,15,4,15,0.00
2013-1-8,39.2,24.8,19.2,24.4,16.5,11.4,77,71,54,30.48,30.39,8,1,8,0.00
2013-1-9,48.6,34.3,23.0,30.4,20.4,16.9,83,59,29,30.67,30.27,12,4,12,0.00
2013-1-10,41.5,32.7,23.5,29.1,22.3,17.0,81,66,49,30.79,30.40,7,2,7,0.05
2013-1-11,60.3,44.0,34.5,50.4,39.1,28.7,91,83,64,30.40,30.01,11,2,11,0.40
2013-1-12,63.0,50.3,44.1,48.4,44.4,40.7,89,81,56,30.19,30.08,9,2,9,0.01
2013-1-13,49.8,38.8,30.4,47.0,34.8,24.4,90,86,78,30.27,29.95,14,2,14,0.40
2013-1-14,30.4,24.6,17.2,24.4,12.4,7.9,78,60,46,30.65,30.27,0,0,0,0.00
2013-1-15,32.5,22.6,13.8,17.7,10.3,6.1,74,60,43,30.65,30.37,0,0,0,0.00
2013-1-16,43.2,29.7,19.8,21.6,12.9,1.8,75,53,20,30.37,30.06,14,2,14,0.00
2013-1-17,42.1,32.3,27.1,23.5,14.7,4.4,68,49,31,30.45,30.14,14,5,14,0.00
2013-1-18,33.4,29.4,0.0,17.4,9.3,0.0,52,42,37,30.45,29.49,15,7,15,0.00
2013-1-19,50.0,41.0,33.1,30.6,24.1,17.2,64,51,40,29.49,29.10,19,5,19,0.00
2013-1-20,43.7,23.2,16.7,29.9,0.4,-11.2,58,37,26,29.68,29.08,30,9,30,0.04
2013-1-21,19.9,14.0,4.8,8.4,-2.1,-11.7,67,48,37,29.64,29.46,12,4,12,0.00
2013-1-22,14.2,5.3,-2.7,-4.7,-14.3,-23.5,55,40,22,29.78,29.61,11,4,11,0.00
2013-1-23,19.2,11.3,3.4,4.1,-4.3,-9.3,64,49,37,29.77,29.58,11,2,11,0.00
2013-1-24,15.3,12.3,8.6,3.8,-4.8,-15.9,64,47,23,29.92,29.60,8,2,8,0.00
2013-1-25,24.3,17.7,13.8,10.1,4.7,-6.7,67,56,38,29.85,29.38,8,2,8,0.00
2013-1-26,27.1,22.0,17.6,13.6,9.1,3.8,74,58,38,29.80,29.41,9,2,9,0.00
2013-1-27,31.8,22.3,12.9,23.6,10.8,4.7,80,62,38,29.83,29.47,11,2,11,0.01
2013-1-28,43.9,37.1,28.9,41.2,33.6,23.6,91,87,80,29.50,29.23,8,1,8,0.27
2013-1-29,56.5,45.8,35.1,53.0,42.8,31.4,92,89,84,29.39,28.86,12,2,12,0.50
2013-1-30,61.3,49.9,32.7,54.6,45.4,24.2,90,84,72,28.85,28.52,22,4,22,0.37
2013-1-31,32.4,22.5,15.8,24.0,9.4,2.4,76,57,46,29.24,28.64,18,3,18,0.01